Hourly Data Report for October 22, 2016

All times are specified in Local Standard Time (LST). Add 1 hour to adjust for Daylight Saving Time where and when it is observed.

QIKIQTARJUAQ A
NUNAVUT

67°32'48.000" N
64°01'54.000" W
5.50 m
2400577
YVM

Download Data

Hourly Data (October 2016)
Hourly Data Report for October 22, 2016
Temp Definition
°C
Dew Point Temp Definition
°C
Rel Hum Definition
%
Wind Dir Definition
10's deg

Wind Spd Definition
km/h
Visibility Definition
km
Stn Press Definition
kPa
Hmdx Definition


Wind Chill Definition


Weather Definition


TIME
00:00 Legend Double Dagger -3.1 -7.0 74 33 24 16.1 101.07   -10 LegendNANA
01:00 Legend Double Dagger -3.2 -6.4 79 33 35 16.1 101.07   -11 Snow
02:00 Legend Double Dagger -3.2 -6.5 78 34 32 16.1 101.17   -11 LegendNANA
03:00 Legend Double Dagger -3.0 -7.3 72 33 21 16.1 101.23   -9 LegendNANA
04:00 Legend Double Dagger -2.6 -6.1 77 33 43 16.1 101.27   -11 LegendNANA
05:00 Legend Double Dagger -3.1 -4.0 94 33 39 2.0 101.34   -11 Snow
06:00 Legend Double Dagger -2.6 -3.9 91 35 34 2.8 101.51   -10 Snow
07:00 Legend Double Dagger -2.5 -6.1 77 34 22 16.1 101.58   -9 Snow
08:00 Legend Double Dagger -2.6 -5.6 80 34 21 16.1 101.67   -9 Snow
09:00 Legend Double Dagger -2.8 -3.7 94 35 30 2.4 101.77   -10 Snow
10:00 Legend Double Dagger -2.2 -5.7 77 32 26 16.1 101.82   -9 LegendNANA
11:00 Legend Double Dagger -2.5 -6.7 73 32 22 16.1 101.90   -9 LegendNANA
12:00 Legend Double Dagger -1.5 -6.4 70 32 28 16.1 101.98   -8 LegendNANA
13:00 Legend Double Dagger -1.9 -6.7 70 32 26 16.1 102.06   -8 LegendNANA
14:00 Legend Double Dagger -1.5 -6.2 70 32 22 16.1 102.13   -7 LegendNANA
15:00 Legend Double Dagger -2.9 -4.1 91 32 26 1.2 102.24   -10 Snow
16:00 Legend Double Dagger -1.8 -4.1 84 34 30 14.5 102.29   -9 Snow
17:00 Legend Double Dagger -2.0 -3.3 91 34 32 3.2 102.39   -9 Snow
18:00 Legend Double Dagger -2.3 -3.7 90 35 35 4.0 102.45   -10 Snow
19:00 Legend Double Dagger -2.4 -4.2 88 33 28 14.5 102.52   -9 Snow
20:00 Legend Double Dagger -2.4 -4.4 87 35 32 16.1 102.57   -10 Snow
21:00 Legend Double Dagger -2.6 -5.6 80 34 30 16.1 102.61   -10 Snow
22:00 Legend Double Dagger -3.1 -6.6 77 33 17 12.9 102.66   -9 Snow
23:00 Legend Double Dagger -3.3 -6.7 77 29 17 14.5 102.70   -9 Snow

Notes on Data Quality.

Legend

  • E = Estimated
  • M = Missing
  • NA = Not Available
  • ‡ = Partner data that is not subject to review by the National Climate Archives
Date modified: